Flag for Germany Weather past 2 weeks in Demmin, Mecklenburg-Western Pomerania, Germany

Now
53 °F

Light rain. Overcast.


Feels Like: 52 °F
Forecast: 39 / 50 °F
Wind: 3 mph from Southwest

Location: Greifswald

Current Time: Oct 21, 2014 at 3:21:36 AM

Latest Report: Oct 21, 2014 at 3:00 AM


Visibility: 13 mi

Pressure: 29.78 "Hg

Humidity: 92%

Dew point: 51 °F

Location of DemminLocation

Historic Weather in Demmin — Graph

°F

Demmin temperature yesterday

Maximum temperature yesterday: 61 °F (at 2:00 PM)
Minimum temperature yesterday: 54 °F (at 11:00 PM)
Average temperature yesterday: 57 °F

Past Weeks' High & Low Weather Summary

 TemperatureHumidityPressure
High70 °F (Oct 19, 4:00 PM)100% (Oct 11, 2:00 AM)30.21 "Hg (Oct 11, 2:00 AM)
Low44 °F (Oct 6, 6:00 AM)59% (Oct 8, 1:00 PM)29.65 "Hg (Oct 9, 4:00 AM)
Average56 °F89%29.87 "Hg
* Reported Oct 6 2:00 AM — Oct 21 2:00 AM, Demmin, Weather by CustomWeather, © 2014

Note: Actual official high and low records may vary slightly from our data, if they occured in-between our weather recording intervals... More about our weather records

Advertising

Demmin weather history for previous 24 hours

 ConditionsComfort  
Time TempWeatherWind HumidityBarometerVisibility
2:00 AM
Oct 21
53 °FLight rain. Overcast.3 mph92%29.79 "Hg9 mi
1:00 AM53 °FLight rain. Overcast.2 mph89%29.80 "Hg9 mi
12:00 AM53 °FOvercast.3 mph85%29.81 "Hg9 mi
11:00 PM
Oct 20
54 °FLight rain. Overcast.5 mph82%29.81 "Hg9 mi
10:00 PM55 °FOvercast.6 mph77%29.82 "Hg9 mi
9:00 PM55 °FOvercast.5 mph77%29.81 "Hg9 mi
8:00 PM55 °FOvercast.5 mph81%29.81 "Hg9 mi
7:00 PM55 °FPassing clouds.5 mph79%29.81 "Hg10 mi
6:00 PM56 °FPassing clouds.5 mph80%29.80 "Hg11 mi
4:00 PM59 °FOvercast.7 mph64%29.80 "Hg17 mi
3:00 PM61 °FPartly sunny.9 mph61%29.79 "Hg9 mi
2:00 PM61 °FPartly sunny.9 mph64%29.79 "Hg8 mi
1:00 PM59 °FPartly sunny.7 mph73%29.80 "Hg19 mi
12:00 PM60 °FPartly sunny.8 mph73%29.79 "Hg16 mi
10:00 AM57 °FOvercast.8 mph84%29.76 "Hg18 mi
9:00 AM57 °FOvercast.7 mph86%29.75 "Hg16 mi
8:00 AM57 °FPartly sunny.7 mph85%29.75 "Hg14 mi
7:00 AM57 °FOvercast.7 mph85%29.75 "Hg12 mi
4:00 AM57 °FOvercast.5 mph87%29.78 "Hg22 mi
3:00 AM57 °FPassing clouds.5 mph85%29.79 "Hg22 mi
Weather by CustomWeather, © 2014

See weather overviewHow to use our weather pages